Flag for Germany Weather past 2 weeks in Lüneburg, Lower Saxony, Germany

Now
81 °F

Passing clouds.


Feels Like: 81 °F
Forecast: 60 / 80 °F
Wind: 15 mph from Northeast

Location: Fassberg

Current Time: Jul 22, 2014 at 8:11:39 PM

Latest Report: Jul 22, 2014 at 6:20 PM


Visibility: N/A

Pressure: 30.07 "Hg

Humidity: 45%

Dew point: 57 °F

Location of LüneburgLocation

Historic Weather in Lüneburg — Graph

°F

Lüneburg temperature yesterday

Maximum temperature yesterday: 81 °F (at 2:20 PM)
Minimum temperature yesterday: 66 °F (at 6:20 AM)
Average temperature yesterday: 74 °F

Past Weeks' High & Low Weather Summary

 TemperatureHumidityPressure
High88 °F (Jul 19, 1:20 PM)100% (Jul 8, 9:50 AM)30.21 "Hg (Jul 8, 9:50 AM)
Low50 °F (Jul 12, 5:20 AM)31% (Jul 19, 4:20 PM)29.59 "Hg (Jul 9, 10:57 AM)
Average68 °F74%29.92 "Hg
* Reported Jul 7 6:20 PM — Jul 22 6:20 PM, Lüneburg, Weather by CustomWeather, © 2014

Note: Actual official high and low records may vary slightly from our data, if they occured in-between our weather recording intervals... More about our weather records

Advertising

Lüneburg weather history for previous 24 hours

 ConditionsComfort  
Time TempWeatherWind HumidityBarometerVisibility
6:20 PM
Jul 22
81 °FPassing clouds.15 mph45%30.07 "HgN/A
5:20 PM82 °FScattered clouds.12 mph42%30.07 "HgN/A
5:00 PM81 °FScattered clouds.8 mph48%30.07 "HgN/A
4:20 PM82 °FScattered clouds.14 mph45%30.07 "HgN/A
3:20 PM82 °FScattered clouds.12 mph48%30.07 "HgN/A
2:20 PM79 °FScattered clouds.15 mph54%30.07 "HgN/A
1:20 PM81 °FScattered clouds.13 mph54%30.07 "HgN/A
12:20 PM77 °FPartly sunny.10 mph61%30.07 "HgN/A
11:20 AM73 °FPartly sunny.13 mph69%30.07 "HgN/A
10:20 AM72 °FPartly sunny.12 mph73%30.07 "HgN/A
9:20 AM68 °FBroken clouds.12 mph78%30.07 "HgN/A
8:20 AM64 °FPartly sunny.9 mph88%30.07 "HgN/A
7:20 AM63 °FLow clouds.12 mph94%30.04 "HgN/A
6:20 AM63 °FPassing clouds.14 mph88%30.04 "HgN/A
5:20 AM61 °FPassing clouds.12 mph94%30.01 "Hg6 mi
4:20 AM61 °FPassing clouds.9 mph94%30.01 "HgN/A
3:20 AM63 °FPassing clouds.12 mph88%30.01 "HgN/A
2:20 AM64 °FPassing clouds.12 mph78%30.01 "HgN/A
1:20 AM66 °FPassing clouds.13 mph73%29.98 "HgN/A
12:20 AM66 °FPassing clouds.9 mph68%29.98 "HgN/A
11:20 PM
Jul 21
70 °FPartly cloudy.13 mph57%29.98 "HgN/A
10:20 PM72 °FPartly sunny.13 mph53%29.95 "HgN/A
9:20 PM73 °FPartly sunny.13 mph53%29.95 "HgN/A
8:20 PM75 °FBroken clouds.8 mph54%29.92 "HgN/A
Weather by CustomWeather, © 2014

See weather overviewHow to use our weather pages